Starlink 31696

operational
NORAD ID: 59435 Int'l Des: 2024-065 Owner: SPXS Country: US Constellation: starlink
LEOCIRCULAR

About Starlink 31696

Description loading...

Live Position

Loading 3D Globe...

Upcoming Passes

Altitude History

Altitude vs Time

uPlot chart will show altitude changes over time

Two-Line Element Set

1 59435U 24065Q 25350.30022404 -.00003641 00000-0 -11104-3 0 9999
2 59435 53.1622 308.9007 0001341 86.4370 273.6784 15.30153868 96160
Epoch: Dec 16, 2025 • Age: 28 hours

Current Status

Altitude 486.8 km
Velocity 7.62 km/s
Sub-Earth Point -34.15°S, 94.87°W
Launch Date Apr 7, 2024
Age 1.6 years
Type internet

Technical Details

Classification Payload
Mass 730.00 kg
Dry Mass 700.00 kg
Total Mass 730.00 kg
Length 0.30 m
Diameter 4.10 m
Span 29.00 m
Shape Box + pan
Manufacturer SPXS
Bus Type Starlink V2M
Phase Status In Orbit
Owner/State SPXS/US

Large Constellations

Loading constellations...